Location: Castillon
(43.0896°N, 0.2156°E)
Time: 18:26:40
(UTC+00:00)

Geosat - Pass Details

Date: 16 June 2021
Orbit: 762 x 766 km, 108.0° (Epoch: 22 July)

Event Time Altitude Azimuth Distance (km) Brightness Sun altitude
Exits shadow 21:15:05 20° 143° (SE) 1,718 5.2 -13.5°
Maximum altitude 21:18:37 75° 61° (ENE) 795 4.0 -13.9°
Drops below altitude 10° 21:23:38 10° 337° (NNW) 2,309 7.8 -14.4°
Sets 21:25:55 0° 335° (NNW) 3,239 9.0 -14.7°
